Regional Weather Roundup
Issued by NWS Northern Indiana

Home | Current Version | Previous Version | Text Only | Print | Product List | Glossary On
Versions: 1 2 3 4 5 6 7 8 9 10 11 12 13 14 15 16 17 18 19 20 21 22 23 24 25 26 27 28 29 30 31 32 33 34 35 36 37 38 39 40 41 42 43 44 45 46 47 48 49 50
000
ASUS43 KIWX 120310
RWRIWX

KIWX WEATHER ROUNDUP
NATIONAL WEATHER SERVICE NORTHERN INDIANA
1100 PM EDT FRI JUL 11 2014

NOTE: "FAIR" INDICATES FEW OR NO CLOUDS BELOW 12,000 FEET WITH NO
SIGNIFICANT WEATHER AND/OR OBSTRUCTIONS TO VISIBILITY.

* THESE STATIONS ARE NOT UNDER NWS QUALITY CONTROL. THEY ALSO MAY NOT
  REPORT WEATHER SUCH AS PRECIPITATION OR FOG.

INZ001>027-120400-
NORTHERN INDIANA

CITY           SKY/WX    TMP DP  RH WIND       PRES   REMARKS
GARY*          CLOUDY    73  64  73 CALM      30.15R
VALPARAISO     MOCLDY    68  63  84 NE3       30.16R
MICHIGAN CITY* CLOUDY    68  63  83 SE3       30.15S
LAPORTE*       MOCLDY    68  63  83 CALM      30.17R
KNOX*          MOCLDY    70  63  78 CALM      30.15R
SOUTH BEND     CLOUDY    73  60  63 CALM      30.16S
GOSHEN         CLOUDY    70  65  84 CALM      30.17R
MONTICELLO*    PTCLDY    71  64  80 SE3       30.14S
LOGANSPORT*    PTCLDY    68  61  77 SE5       30.16F
ROCHESTER*     CLOUDY    72  63  73 E3        30.17R
WARSAW*        CLOUDY    68  61  77 CALM      30.17S
ANGOLA*        MOCLDY    68  59  73 CALM      30.19R
FORT WAYNE     CLOUDY    72  60  66 SE3       30.18R
HUNTINGTON*    MOCLDY    69  63  81 CALM      30.17S
PERU/GRISSOM   MOCLDY    70  65  83 S6        30.16S
MARION*        PTCLDY    65  61  86 CALM      30.19R

$$
INZ028>050-120400-
CENTRAL INDIANA

CITY           SKY/WX    TMP DP  RH WIND       PRES   REMARKS
LAFAYETTE      CLEAR     69  61  75 CALM      30.15R
KOKOMO*        PTCLDY    66  63  88 S5        30.17S
MUNCIE*        PTCLDY    69  59  70 CALM      30.18R
INDIANAPOLIS   PTCLDY    73  59  61 S6        30.16S

$$
MIZ043>046-050>051-056>058-064>065-071>073-077>080-120400-
SOUTHWEST LOWER MICHIGAN

CITY           SKY/WX    TMP DP  RH WIND       PRES   REMARKS
BATTLE CREEK   MOCLDY    71  60  68 SW5       30.18S
BENTON HARBOR  MOCLDY    68  63  84 CALM      30.15S
COLDWATER*     MOCLDY    70  62  77 CALM      30.18S
HILLSDALE*     CLOUDY    67  65  93 CALM      30.19R
HOLLAND        MOCLDY    68  60  75 CALM      30.16S
GRAND RAPIDS   MOCLDY    73  59  61 CALM      30.16S
KALAMAZOO      CLOUDY    71  60  68 S3        30.17S
STURGIS*       CLOUDY    66  66 100 CALM      30.18R
THREE RIVERS*  FAIR      70  66  89 CALM      30.17S

$$
OHZ001>008-015>018-024>025-120400-
NORTHWEST OHIO

CITY           SKY/WX    TMP DP  RH WIND       PRES   REMARKS
WAUSEON*       FAIR      66  63  88 SE5       30.17S
DEFIANCE       LGT RAIN  71  63  75 CALM      30.18R
FINDLAY        MOCLDY    72  63  73 SE3       30.18R
TOLEDO EXPRESS MOCLDY    69  60  73 SE5       30.17S
TOLEDO METCALF MOCLDY    70  59  68 CALM      30.19R
LIMA           MOCLDY    71  64  78 CALM      30.18R

$$
&&



USA.gov is the U.S. government's official web portal to all federal, state and local government web resources and services.